STARLINK-34646

Last updated on Sat Aug 16 2025 00:02:05 GMT+0000 (Coordinated Universal Time)

1 64796U 25150G 25227.37989426 .00061373 00000+0 99253-3 0 9991 2 64796 70.0001 315.8639 0003316 267.3153 92.7655 15.52521828 5971
UTC large
Height (km)
Speed (km/s)
/
Latitude / Longitude
Inclination (degrees)
Orbital Period (minutes)
Azimuth
Elevation
Range (km)
Doppler Factor

Next 0 passes for location: London (51.5072 / 0.1276)

Sorry there are no passes over London.
STARLINK-34646